sat.trackr.live / text

‹ back to catalog

HULIANWANG DIGUI-22

NORAD 63689 · 2025-086C

PAYLOAD ACTIVE UNKNOWN

§ Identity

Operator
Country
PRC
Launch date
2025-04-28
Launch site
WSC
Launch vehicle
Mass (kg)
RCS (m²)

External: N2YO · Heavens-Above · Gunter

§ Orbital elements

Epoch: 2026-09-21T21:25:26.960160Z

Period
108.73 min
Inclination
86.4974°
Eccentricity
0.0001730
Mean motion
13.24411461 rev/d
Perigee alt
1,166.6 km
Apogee alt
1,169.2 km
Semi-major
7,546.1 km
B*
-4.0607e-4
RAAN
280.4706°
Arg perigee
78.5745°
Mean anomaly
281.5584°
Rev number
6,766

§ Raw data

HULIANWANG DIGUI-221 63689U 25086C   26264.89267315 -.00000160  00000+0 -40607-3 0  99922 63689  86.4974 280.4706 0001730  78.5745 281.5584 13.24411461 67661

JSON: /api/v1/satellites/63689 · /tle

For live sub-satellite position, see the globe view (requires WebGL).

§ Visibility from observer

Set your observer location to see the next 7 days of passes ≥ 10°. The values pass through the URL so the page stays shareable.

No JS? Fill the form by hand. The geolocation button needs JavaScript.